Regional Weather Roundup
Issued by NWS Jackson, KY

Home | Current Version | Previous Version | Text Only | Print | Product List | Glossary Off
Versions: 1 2 3 4 5 6 7 8 9 10 11 12 13 14 15 16 17 18 19 20 21 22 23 24 25 26 27 28 29 30 31 32 33 34 35 36 37 38 39 40 41 42 43 44 45 46 47 48 49 50

000
ASUS43 KJKL 240310
RWRJKL

EAST KENTUCKY HOURLY WEATHER ROUNDUP
NATIONAL WEATHER SERVICE JACKSON KY
1100 PM EDT THU APR 23 2015

NOTE: "FAIR" INDICATES FEW OR NO CLOUDS BELOW 12,000 FEET WITH
NO SIGNIFICANT WEATHER AND/OR OBSTRUCTIONS TO VISIBILITY.

* THESE REPORTS ARE NOT UNDER NWS QUALITY CONTROL AND MAY NOT
  REPORT WEATHER SUCH AS PRECIPITATION AND FOG.

KYZ079-080-083-085-087-088-110-112-115-119-120-240400
...EASTERN KENTUCKY...

CITY           SKY/WX    TMP DP  RH WIND       PRES   REMARKS
JACKSON        CLEAR     49  15  25 NW5       30.04R
LONDON         CLEAR     46  27  47 CALM      30.06R
SOMERSET*      CLEAR     46  27  46 CALM      30.08S
MONTICELLO*    CLEAR     42  32  68 CALM      30.10R
MIDDLESBORO*   CLEAR     43  34  71 CALM      30.07R
HARLAN APT*    CLEAR     46  19  34 N7        30.05R
HAZARD APT*    CLEAR     48  19  32 CALM      30.05
BLACK MTN*       N/A     37  18  44 VRB3        N/A
PIKEVILLE APT* CLEAR     46  19  34 NW5       30.03R
BIG SANDY*     CLEAR     49  18  28 NW5       30.04R
MOREHEAD APT*  CLEAR     48  18  29 NW3       30.07R
$$

KYZ035-036-041-042-044-050-067-078-099-240400
...CENTRAL KENTUCKY...

CITY           SKY/WX    TMP DP  RH WIND       PRES   REMARKS
MT STERLING*   CLEAR     43  27  52 CALM      30.08R
FLEMING/MASON* CLEAR     46  19  34 NW3       30.06R
DANVILLE*      CLEAR     43  27  52 CALM      30.08R
RICHMOND*      CLEAR     48  19  32 NW3       30.06R
LEXINGTON      CLEAR     47  20  34 NW5       30.07R
FRANKFORT      CLEAR     45  22  40 NW5       30.06R
$$

KYZ091>093-OHZ055-061-077-WVZ005-015-034-035-042-240400
...SOUTHERN OHIO/WEST VIRGINIA...

CITY           SKY/WX    TMP DP  RH WIND       PRES   REMARKS
COVINGTON      CLEAR     45  22  40 NW5       30.06R
COLUMBUS       CLEAR     41  22  46 NW13      30.04R
DAYTON         CLEAR     41  24  51 CALM      30.06R
WILMINGTON     CLEAR     42  25  50 N8        30.05R
HUNTINGTON     CLEAR     47  21  35 NW5       30.03R
CHARLESTON     CLEAR     47  23  38 NW7       30.03R
PINEVILLE*     CLEAR     43  28  55 MISG      30.06R
BECKLEY        CLEAR     44  16  32 NW8       29.99R
BLUEFIELD      CLEAR     46  12  25 NW13G21   29.99R
$$

VAZ002-007-008-TNZ017-027-036-066-071-240400
...SOUTHWEST VIRGINIA/EAST TENNESSEE...

CITY           SKY/WX    TMP DP  RH WIND       PRES   REMARKS
WISE*          CLEAR     45  12  26 NW3       30.04R
JONESVILLE*    CLEAR     46  27  46 W5        30.06S
ABINGDON*      CLEAR     51  12  21 NW6       30.03R
BRISTOL        CLEAR     50  21  32 NW7       30.03R
KNOXVILLE      MOCLDY    54  25  32 CALM      30.05R
OAK RIDGE      CLEAR     54  28  36 NW3       30.08R
CROSSVILLE     PTCLDY    50  24  36 CALM      30.07R
NASHVILLE      PTCLDY    52  31  44 NE7       30.07R
$$

...KEY TO REMARKS...
VSB - VISIBILITY IN MILES
WCI - WIND CHILL INDEX
HX  - HEAT INDEX

$$



USA.gov is the U.S. government's official web portal to all federal, state and local government web resources and services.